| time (UTC) | temp F | wind direction | speed MPH | gust MPH | rain 1hr in | rain 24hr in | rain mn in | humidity % | barometer mb |
| 20260507114006 | 67 | 175 | 1.0 | 2.0 | 0.00 | 0.00 | 0.00 | 92 | 1009.3 |
| 20260507112805 | 67 | 163 | 2.0 | 2.0 | 0.00 | 0.00 | 0.00 | 90 | 1009.3 |
| 20260507111603 | 67 | 227 | 2.0 | 3.0 | 0.00 | 0.00 | 0.00 | 90 | 1009.1 |
| 20260507110407 | 68 | 299 | 2.0 | 2.0 | 0.00 | 0.00 | 0.00 | 89 | 1009.0 |
| 20260507105204 | 68 | 294 | 1.0 | 2.0 | 0.00 | 0.00 | 0.00 | 89 | 1008.9 |
| 20260507104004 | 68 | 226 | 2.0 | 3.0 | 0.00 | 0.00 | 0.00 | 88 | 1009.1 |
| 20260507102806 | 69 | 279 | 2.0 | 2.0 | 0.00 | 0.00 | 0.00 | 88 | 1008.8 |
| 20260507101604 | 69 | 282 | 1.0 | 2.0 | 0.00 | 0.00 | 0.00 | 87 | 1008.8 |
| 20260507100404 | 69 | 225 | 2.0 | 2.0 | 0.00 | 0.00 | 0.00 | 86 | 1008.7 |
| 20260507095204 | 71 | 275 | 0.0 | 2.0 | 0.00 | 0.00 | 0.00 | 85 | 1008.5 |
| 20260507094004 | 71 | 247 | 1.0 | 2.0 | 0.00 | 0.00 | 0.00 | 84 | 1008.4 |
| 20260507092804 | 72 | 318 | 2.0 | 2.0 | 0.00 | 0.00 | 0.00 | 82 | 1008.3 |
| 20260507091608 | 73 | 323 | 0.0 | 0.0 | 0.00 | 0.00 | 0.00 | 78 | 1008.1 |
| 20260507090406 | 74 | 323 | 0.0 | 0.0 | 0.00 | 0.00 | 0.00 | 77 | 1007.8 |
| 20260507085203 | 74 | 349 | 2.0 | 3.0 | 0.00 | 0.00 | 0.00 | 77 | 1007.8 |
| 20260507084005 | 75 | 348 | 2.0 | 3.0 | 0.00 | 0.00 | 0.00 | 76 | 1007.7 |
| 20260507082803 | 75 | 37 | 1.0 | 2.0 | 0.00 | 0.00 | 0.00 | 74 | 1007.5 |
| 20260507081603 | 75 | 19 | 1.0 | 3.0 | 0.00 | 0.00 | 0.00 | 74 | 1007.7 |
| 20260507080406 | 76 | 8 | 2.0 | 6.0 | 0.00 | 0.00 | 0.00 | 72 | 1007.6 |
| 20260507075206 | 76 | 27 | 2.0 | 5.0 | 0.00 | 0.00 | 0.00 | 71 | 1007.8 |
| 20260507074004 | 77 | 40 | 3.0 | 7.0 | 0.00 | 0.00 | 0.00 | 70 | 1007.9 |
| 20260507072805 | 77 | 31 | 5.0 | 7.0 | 0.00 | 0.00 | 0.00 | 70 | 1007.9 |
| 20260507071608 | 77 | 142 | 3.0 | 3.0 | 0.00 | 0.00 | 0.00 | 69 | 1008.0 |
| 20260507070406 | 77 | 116 | 6.0 | 7.0 | 0.00 | 0.00 | 0.00 | 68 | 1008.0 |
| 20260507065205 | 79 | 94 | 3.0 | 6.0 | 0.00 | 0.00 | 0.00 | 65 | 1008.0 |
| 20260507064005 | 78 | 44 | 6.0 | 9.0 | 0.00 | 0.00 | 0.00 | 66 | 1008.1 |
| 20260507062804 | 78 | 92 | 5.0 | 12.0 | 0.00 | 0.00 | 0.00 | 66 | 1008.0 |
| 20260507061605 | 78 | 158 | 1.0 | 6.0 | 0.00 | 0.00 | 0.00 | 66 | 1008.1 |
| 20260507055203 | 78 | 120 | 8.0 | 15.0 | 0.00 | 0.00 | 0.00 | 66 | 1008.5 |
| 20260507054004 | 79 | 226 | 6.0 | 9.0 | 0.00 | 0.00 | 0.00 | 65 | 1008.5 |
| 20260507052808 | 78 | 126 | 9.0 | 16.0 | 0.00 | 0.00 | 0.00 | 66 | 1008.7 |
| 20260507051605 | 78 | 18 | 6.0 | 13.0 | 0.00 | 0.00 | 0.00 | 65 | 1008.6 |
| 20260507050405 | 80 | 101 | 6.0 | 12.0 | 0.00 | 0.00 | 0.00 | 62 | 1008.8 |
| 20260507045204 | 80 | 16 | 10.0 | 16.0 | 0.00 | 0.00 | 0.00 | 61 | 1009.0 |
| 20260507044004 | 80 | 28 | 12.0 | 18.0 | 0.00 | 0.00 | 0.00 | 61 | 1009.0 |
| 20260507042805 | 80 | 21 | 10.0 | 13.0 | 0.00 | 0.00 | 0.00 | 59 | 1009.0 |
| 20260507041605 | 80 | 41 | 7.0 | 16.0 | 0.00 | 0.00 | 0.00 | 58 | 1009.2 |
| 20260507040404 | 80 | 103 | 6.0 | 10.0 | 0.00 | 0.00 | 0.00 | 58 | 1009.4 |
| 20260507035207 | 81 | 43 | 3.0 | 12.0 | 0.00 | 0.00 | 0.00 | 57 | 1009.5 |
| 20260507034005 | 79 | 321 | 3.0 | 9.0 | 0.00 | 0.00 | 0.00 | 58 | 1009.6 |
| 20260507032804 | 80 | 350 | 3.0 | 7.0 | 0.00 | 0.00 | 0.00 | 56 | 1009.9 |
| 20260507031606 | 79 | 16 | 2.0 | 5.0 | 0.00 | 0.00 | 0.00 | 57 | 1010.1 |
| 20260507030412 | 79 | 33 | 5.0 | 12.0 | 0.00 | 0.00 | 0.00 | 57 | 1010.0 |
| 20260507025205 | 78 | 31 | 8.0 | 13.0 | 0.00 | 0.00 | 0.00 | 57 | 1010.2 |
| 20260507024004 | 79 | 23 | 7.0 | 13.0 | 0.00 | 0.00 | 0.00 | 57 | 1010.6 |
| 20260507022805 | 79 | 16 | 7.0 | 13.0 | 0.00 | 0.00 | 0.00 | 57 | 1010.5 |
| 20260507021604 | 77 | 26 | 1.0 | 5.0 | 0.00 | 0.00 | 0.00 | 62 | 1011.0 |
| 20260507020407 | 77 | 68 | 2.0 | 6.0 | 0.00 | 0.00 | 0.00 | 60 | 1011.2 |
| 20260507015205 | 76 | 38 | 6.0 | 9.0 | 0.00 | 0.00 | 0.00 | 61 | 1011.5 |
| 20260507014004 | 77 | 12 | 1.0 | 6.0 | 0.00 | 0.00 | 0.00 | 60 | 1011.7 |
| 20260507012806 | 75 | 38 | 2.0 | 9.0 | 0.00 | 0.00 | 0.00 | 60 | 1011.9 |
| 20260507011605 | 74 | 12 | 2.0 | 6.0 | 0.00 | 0.00 | 0.00 | 60 | 1012.0 |
| 20260507010407 | 74 | 92 | 2.0 | 8.0 | 0.00 | 0.00 | 0.00 | 59 | 1012.2 |
| 20260507005205 | 74 | 61 | 1.0 | 3.0 | 0.00 | 0.00 | 0.00 | 61 | 1012.2 |
| 20260507004004 | 74 | 35 | 5.0 | 8.0 | 0.00 | 0.00 | 0.00 | 62 | 1012.2 |
| 20260507002805 | 73 | 34 | 5.0 | 8.0 | 0.00 | 0.00 | 0.00 | 63 | 1012.3 |
| 20260507001608 | 73 | 54 | 1.0 | 6.0 | 0.00 | 0.00 | 0.00 | 66 | 1012.6 |
| 20260507000406 | 72 | 57 | 1.0 | 3.0 | 0.00 | 0.00 | 0.00 | 63 | 1012.8 |
| 20260506235205 | 71 | 44 | 0.0 | 2.0 | 0.00 | 0.00 | 0.00 | 69 | 1013.0 |
| 20260506234007 | 70 | 359 | 0.0 | 1.0 | 0.00 | 0.00 | 0.00 | 71 | 1013.0 |
| 20260506232807 | 69 | 48 | 1.0 | 3.0 | 0.00 | 0.00 | 0.00 | 72 | 1013.2 |
| 20260506231605 | 66 | 102 | 2.0 | 3.0 | 0.00 | 0.00 | 0.00 | 76 | 1013.5 |
| 20260506225206 | 64 | 146 | 0.0 | 2.0 | 0.00 | 0.00 | 0.00 | 79 | 1013.7 |
| 20260506224006 | 66 | 61 | 0.0 | 0.0 | 0.00 | 0.00 | 0.00 | 77 | 1014.0 |
| 20260506222807 | 64 | 35 | 1.0 | 1.0 | 0.00 | 0.00 | 0.00 | 79 | 1014.0 |
| 20260506221605 | 64 | 138 | 0.0 | 1.0 | 0.00 | 0.00 | 0.00 | 79 | 1014.0 |
| 20260506220406 | 61 | 84 | 0.0 | 0.0 | 0.00 | 0.00 | 0.00 | 85 | 1014.4 |
| 20260506215207 | 60 | 89 | 0.0 | 1.0 | 0.00 | 0.00 | 0.00 | 86 | 1014.5 |
| 20260506214007 | 60 | 90 | 2.0 | 2.0 | 0.00 | 0.00 | 0.00 | 87 | 1014.7 |
| 20260506212806 | 58 | 92 | 0.0 | 1.0 | 0.00 | 0.00 | 0.00 | 92 | 1014.6 |
| 20260506211607 | 57 | 149 | 0.0 | 0.0 | 0.00 | 0.00 | 0.00 | 93 | 1014.5 |
| 20260506210407 | 56 | 244 | 1.0 | 2.0 | 0.00 | 0.00 | 0.00 | 96 | 1014.4 |
| 20260506205206 | 54 | 220 | 1.0 | 1.0 | 0.00 | 0.00 | 0.00 | 99 | 1014.3 |
| 20260506204005 | 53 | 264 | 1.0 | 1.0 | 0.00 | 0.00 | 0.00 | 99 | 1014.6 |
| 20260506202805 | 52 | 269 | 2.0 | 2.0 | 0.00 | 0.00 | 0.00 | 99 | 1014.5 |
| 20260506201606 | 51 | 231 | 0.0 | 0.0 | 0.00 | 0.00 | 0.00 | 99 | 1014.5 |
| 20260506200407 | 52 | 224 | 1.0 | 1.0 | 0.00 | 0.00 | 0.00 | 99 | 1014.4 |
| 20260506195206 | 52 | 75 | 0.0 | 0.0 | 0.00 | 0.00 | 0.00 | 99 | 1014.5 |
| 20260506194006 | 52 | 198 | 0.0 | 0.0 | 0.00 | 0.00 | 0.00 | 99 | 1014.5 |
| 20260506192806 | 52 | 264 | 2.0 | 2.0 | 0.00 | 0.00 | 0.00 | 99 | 1014.8 |
| 20260506191604 | 53 | 222 | 2.0 | 3.0 | 0.00 | 0.00 | 0.00 | 99 | 1014.7 |
| 20260506190404 | 53 | 311 | 0.0 | 0.0 | 0.00 | 0.00 | 0.00 | 99 | 1014.8 |
| 20260506185204 | 53 | 335 | 1.0 | 2.0 | 0.00 | 0.00 | 0.00 | 99 | 1015.0 |
| 20260506184004 | 54 | 218 | 1.0 | 2.0 | 0.00 | 0.00 | 0.00 | 99 | 1015.5 |
| 20260506182804 | 53 | 286 | 1.0 | 2.0 | 0.00 | 0.00 | 0.00 | 99 | 1015.2 |
| 20260506181604 | 53 | 122 | 0.0 | 1.0 | 0.00 | 0.00 | 0.00 | 99 | 1015.4 |
| 20260506180406 | 53 | 284 | 3.0 | 6.0 | 0.00 | 0.00 | 0.00 | 99 | 1015.6 |
| 20260506175204 | 53 | 164 | 2.0 | 2.0 | 0.00 | 0.00 | 0.00 | 99 | 1015.5 |
| 20260506174008 | 54 | 197 | 0.0 | 1.0 | 0.00 | 0.00 | 0.00 | 99 | 1015.3 |
| 20260506172805 | 53 | 341 | 0.0 | 1.0 | 0.00 | 0.00 | 0.00 | 99 | 1015.5 |
| 20260506171606 | 54 | 347 | 0.0 | 0.0 | 0.00 | 0.00 | 0.00 | 99 | 1015.2 |
| 20260506170404 | 54 | 341 | 1.0 | 2.0 | 0.00 | 0.00 | 0.00 | 97 | 1015.6 |
| 20260506165205 | 55 | 288 | 1.0 | 1.0 | 0.00 | 0.00 | 0.00 | 96 | 1015.9 |
| 20260506164003 | 55 | 313 | 0.0 | 0.0 | 0.00 | 0.00 | 0.00 | 97 | 1015.9 |
| 20260506162805 | 55 | 334 | 0.0 | 0.0 | 0.00 | 0.00 | 0.00 | 96 | 1016.1 |
| 20260506161605 | 56 | 314 | 2.0 | 2.0 | 0.00 | 0.00 | 0.00 | 95 | 1015.9 |
| 20260506160403 | 56 | 201 | 1.0 | 2.0 | 0.00 | 0.00 | 0.00 | 95 | 1016.1 |
| 20260506155203 | 55 | 249 | 2.0 | 2.0 | 0.00 | 0.00 | 0.00 | 96 | 1016.3 |
| 20260506154005 | 55 | 289 | 0.0 | 1.0 | 0.00 | 0.00 | 0.00 | 96 | 1016.3 |
| 20260506152804 | 56 | 299 | 2.0 | 3.0 | 0.00 | 0.00 | 0.00 | 95 | 1016.5 |
| 20260506151604 | 56 | 182 | 0.0 | 1.0 | 0.00 | 0.00 | 0.00 | 95 | 1016.6 |
| 20260506150405 | 56 | 304 | 0.0 | 0.0 | 0.00 | 0.00 | 0.00 | 95 | 1016.6 |
| 20260506145205 | 56 | 244 | 0.0 | 0.0 | 0.00 | 0.00 | 0.00 | 94 | 1016.6 |
| 20260506144005 | 56 | 270 | 1.0 | 2.0 | 0.00 | 0.00 | 0.00 | 94 | 1016.8 |
| 20260506142805 | 57 | 265 | 1.0 | 1.0 | 0.00 | 0.00 | 0.00 | 94 | 1016.9 |
| 20260506141604 | 57 | 249 | 2.0 | 3.0 | 0.00 | 0.00 | 0.00 | 92 | 1016.9 |
| 20260506140404 | 58 | 276 | 0.0 | 0.0 | 0.00 | 0.00 | 0.00 | 91 | 1016.9 |
| 20260506135203 | 57 | 218 | 0.0 | 1.0 | 0.00 | 0.00 | 0.00 | 91 | 1017.0 |
| 20260506134005 | 57 | 162 | 1.0 | 2.0 | 0.00 | 0.00 | 0.00 | 92 | 1017.2 |
| 20260506132803 | 57 | 286 | 1.0 | 2.0 | 0.00 | 0.00 | 0.00 | 91 | 1017.1 |
| 20260506131605 | 57 | 297 | 2.0 | 2.0 | 0.00 | 0.00 | 0.00 | 91 | 1017.0 |
| 20260506130405 | 59 | 182 | 0.0 | 1.0 | 0.00 | 0.00 | 0.00 | 88 | 1017.2 |
| 20260506125204 | 58 | 209 | 3.0 | 3.0 | 0.00 | 0.00 | 0.00 | 89 | 1017.3 |
| 20260506124004 | 58 | 189 | 1.0 | 1.0 | 0.00 | 0.00 | 0.00 | 90 | 1017.3 |
| 20260506122807 | 58 | 189 | 1.0 | 1.0 | 0.00 | 0.00 | 0.00 | 90 | 1017.3 |
| 20260506121604 | 58 | 189 | 1.0 | 1.0 | 0.00 | 0.00 | 0.00 | 90 | 1017.2 |
| 20260506120405 | 58 | 227 | 0.0 | 0.0 | 0.00 | 0.00 | 0.00 | 90 | 1017.3 |
| 20260506115204 | 58 | 242 | 1.0 | 2.0 | 0.00 | 0.00 | 0.00 | 90 | 1017.2 |